Location: Mountain View
(37.3861°N, 122.0839°W)
Time: 04:00:10
(UTC-08:00)

Amateur Radio Satellites - All Passes

Search period start: 15 December 2017 03:30
Search period end: 16 December 2017 03:30
Location: Mountain View, 37.3861°N, 122.0839°W

Satellite Date Start Highest point End Downlink Frequencies (MHz)
Time Altitude Azimuth
AO-7 15 Dec 03:33:06 03:41:26 65° 105° (ESE) 03:49:43 .
ITUPSAT 1 15 Dec 03:33:40 03:37:56 33° 262° (W) 03:42:14 437.325
ITAMSAT 1 15 Dec 03:55:23 04:00:35 76° 103° (ESE) 04:05:44 435.822/435.867
PCSat 15 Dec 03:56:08 04:01:34 78° 62° (ENE) 04:06:58 145.827
CUBESAT XI-V 15 Dec 04:04:28 04:08:53 45° 261° (W) 04:13:23 437.345
M-CUBED/EXP-1 PRIME 15 Dec 04:09:47 04:14:14 61° 290° (WNW) 04:18:21 437.505
KKS-1 15 Dec 04:25:41 04:30:03 58° 74° (ENE) 04:34:27 437.445
BEESAT 3 15 Dec 04:35:03 04:38:45 38° 55° (NE) 04:42:22 437.485
DOVE 4 15 Dec 04:50:22 04:54:43 53° 100° (E) 04:58:51 437.250
YUBILEINY 15 Dec 04:57:18 05:03:45 22° 293° (WNW) 05:10:17 435.215
STARS 15 Dec 05:07:04 05:11:24 64° 75° (ENE) 05:15:45 437.465
JUGNU 15 Dec 05:08:16 05:11:03 14° 180° (S) 05:13:51 437.505
BEESAT 2 15 Dec 05:16:25 05:20:00 30° 53° (NE) 05:23:31 435.950
CUTE-I 15 Dec 05:26:14 05:29:57 19° 93° (E) 05:33:37 437.470
AO-7 15 Dec 05:26:50 05:33:32 28° 302° (WNW) 05:40:15 .
LilacSat-2 15 Dec 05:30:42 05:33:56 24° 96° (E) 05:37:08 437.200
AO-85 15 Dec 05:31:40 05:34:55 18° 47° (NE) 05:38:15 145.980
HO-68 15 Dec 05:34:17 05:36:25 11° 89° (E) 05:38:34 435.675
ITAMSAT 1 15 Dec 05:37:11 05:39:20 13° 299° (WNW) 05:41:30 435.822/435.867
PCSat 15 Dec 05:42:15 05:44:12 12° 258° (WSW) 05:46:11 145.827
XW-2D 15 Dec 05:43:58 05:47:30 34° 97° (E) 05:51:01 145.860 - 145.880
NO-84 15 Dec 05:45:54 05:48:39 39° 129° (SE) 05:51:34 435.350 FM
NUDT-PHONESAT 15 Dec 05:46:11 05:49:12 22° 96° (E) 05:52:11 437.300
KAITUO 1B 15 Dec 05:50:48 05:54:06 28° 97° (E) 05:57:21 145.475/437.950
XW-2B 15 Dec 05:59:41 06:03:28 53° 100° (E) 06:07:12 145.730 - 145.750
KKS-1 15 Dec 06:05:28 06:06:55 11° 268° (W) 06:08:22 437.445
XW-2F 15 Dec 06:11:10 06:15:00 72° 102° (ESE) 06:18:48 145.980 - 146.000
BEESAT 3 15 Dec 06:13:41 06:15:54 15° 251° (WSW) 06:18:06 437.485
STRAND 1 15 Dec 06:18:28 06:23:16 42° 71° (ENE) 06:28:03 437.568
XW-2C 15 Dec 06:27:06 06:30:55 63° 284° (WNW) 06:34:42 145.795 - 145.815
DOVE 4 15 Dec 06:29:59 06:31:50 12° 297° (WNW) 06:33:40 437.250
CUBEBUG 2 15 Dec 06:32:46 06:35:45 18° 94° (E) 06:38:45 437.445
SEEDS 15 Dec 06:49:26 06:53:06 28° 96° (E) 06:56:44 437.485
O/OREOS (USA 219) 15 Dec 06:54:06 06:54:56 10° 97° (E) 06:55:45 437.305
BEESAT 2 15 Dec 06:54:31 06:57:30 20° 249° (WSW) 07:00:27 435.950
JUGNU 15 Dec 06:57:46 06:59:12 11° 190° (S) 07:00:38 437.505
FO-29 15 Dec 07:04:24 07:11:39 46° 68° (ENE) 07:19:00 435.910
CUTE-I 15 Dec 07:05:06 07:10:12 48° 289° (WNW) 07:15:16 437.470
LilacSat-2 15 Dec 07:05:08 07:08:02 20° 290° (WNW) 07:10:54 437.200
AAUSAT CUBESAT 2 15 Dec 07:06:55 07:09:47 18° 94° (E) 07:12:37 437.432
AO-85 15 Dec 07:10:50 07:15:41 65° 242° (WSW) 07:20:50 145.980
CUTE 1.7 + AOD 2 15 Dec 07:13:14 07:17:33 86° 287° (WNW) 07:21:49 437.475
HO-68 15 Dec 07:17:53 07:25:05 81° 105° (ESE) 07:32:14 435.675
XW-2D 15 Dec 07:19:10 07:21:20 15° 292° (WNW) 07:23:31 145.860 - 145.880
NUDT-PHONESAT 15 Dec 07:20:04 07:22:52 20° 290° (WNW) 07:25:40 437.300
NO-84 15 Dec 07:24:00 07:26:03 16° 328° (NNW) 07:28:11 435.350 FM
KAITUO 1B 15 Dec 07:25:17 07:27:49 17° 291° (WNW) 07:30:20 145.475/437.950
AO-73 15 Dec 07:28:04 07:31:14 19° 94° (E) 07:34:26 145.935
XW-2A 15 Dec 07:43:15 07:46:36 49° 100° (E) 07:49:55 145.665 - 145.685
SRMSAT 15 Dec 07:44:59 07:47:55 14° 178° (S) 07:50:52 437.500
STRAND 1 15 Dec 07:58:48 08:02:34 20° 266° (W) 08:06:20 437.568
UWE-3 15 Dec 08:06:19 08:10:38 67° 284° (WNW) 08:15:03 435.000/436.395/437.385
CUBEBUG 2 15 Dec 08:08:31 08:12:24 34° 288° (WNW) 08:16:22 437.445
SEEDS 15 Dec 08:25:21 08:28:36 22° 291° (WNW) 08:31:49 437.485
O/OREOS (USA 219) 15 Dec 08:29:09 08:33:42 64° 292° (WNW) 08:38:16 437.305
ZACube-1 15 Dec 08:29:42 08:34:03 72° 285° (WNW) 08:38:30 437.345
AAUSAT CUBESAT 2 15 Dec 08:41:34 08:45:16 31° 288° (WNW) 08:48:55 437.432
TIGRISAT 15 Dec 08:46:37 08:50:38 40° 73° (ENE) 08:54:37 435.000
Oscar 11 15 Dec 08:48:09 08:52:31 80° 285° (WNW) 08:56:52 .
FO-29 15 Dec 08:49:39 08:56:37 37° 265° (W) 09:03:47 435.910
UNISAT 6 15 Dec 08:49:57 08:54:06 49° 74° (ENE) 08:58:13 437.425
AO-73 15 Dec 09:03:33 09:07:29 34° 288° (WNW) 09:11:30 145.935
HO-68 15 Dec 09:07:20 09:11:57 19° 302° (WNW) 09:16:33 435.675
PRISM 15 Dec 09:15:26 09:18:54 26° 70° (ENE) 09:22:23 437.425
SRMSAT 15 Dec 09:33:58 09:36:14 12° 188° (S) 09:38:30 437.500
DELFI C3 15 Dec 09:35:42 09:39:38 68° 101° (E) 09:43:31 145.870
Max Valier Satellite 15 Dec 09:36:06 09:39:41 43° 99° (E) 09:43:15 145.860
EO-88 15 Dec 10:02:11 10:05:50 65° 101° (E) 10:09:27 145.990 - 145.960
AIST 2D 15 Dec 10:06:24 10:09:29 30° 73° (ENE) 10:12:36 435.315
QB50P2 15 Dec 10:09:06 10:11:09 13° 66° (ENE) 10:13:12 145.880/145.840
ISS 15 Dec 10:09:24 10:11:53 20° 130° (SE) 10:14:23 437.550
TIGRISAT 15 Dec 10:25:02 10:27:28 15° 267° (W) 10:29:53 435.000
UNISAT 6 15 Dec 10:29:20 10:31:03 12° 268° (W) 10:32:46 437.425
LO-87 15 Dec 10:31:17 10:33:22 15° 94° (E) 10:35:27 145.935 - 145.965
NANOSAT C BR1 15 Dec 10:38:25 10:41:40 23° 69° (ENE) 10:44:57 145.865
PRISM 15 Dec 10:50:51 10:54:05 22° 264° (W) 10:57:21 437.425
EO-79 15 Dec 10:53:35 10:57:28 38° 72° (ENE) 11:01:22 145.935-145.965
nSIGHT-1 15 Dec 10:59:49 11:03:01 76° 319° (NW) 11:06:14 .
ESTCUBE 1 15 Dec 11:02:33 11:06:35 31° 97° (E) 11:10:35 437.505/2401.250
Max Valier Satellite 15 Dec 11:11:55 11:13:03 11° 294° (WNW) 11:14:11 145.860
POLYITAN 1 15 Dec 11:16:31 11:20:40 74° 76° (ENE) 11:24:51 437.675
AO-91 15 Dec 11:31:18 11:32:12 11° 66° (ENE) 11:33:06 145.960
SPROUT 15 Dec 11:31:28 11:33:35 14° 92° (E) 11:35:43 437.525
AIST 2D 15 Dec 11:41:02 11:42:42 13° 267° (W) 11:44:23 435.315
QB50P2 15 Dec 11:42:27 11:46:29 46° 260° (W) 11:50:33 145.880/145.840
ISS 15 Dec 11:45:07 11:48:11 36° 326° (NW) 11:51:16 437.550
DUCHIFAT 1 15 Dec 11:46:00 11:50:06 64° 258° (WSW) 11:54:15 145.980
LO-87 15 Dec 12:03:45 12:06:46 26° 288° (WNW) 12:09:46 145.935 - 145.965
NANOSAT C BR1 15 Dec 12:13:44 12:17:14 26° 264° (W) 12:20:44 145.865
Oscar 19 15 Dec 12:18:19 12:23:01 38° 70° (ENE) 12:27:45 437.125/150
NO-84 15 Dec 12:19:47 12:22:19 17° 32° (NNE) 12:24:58 435.350 FM
BUGSAT 1 15 Dec 12:23:01 12:27:03 73° 75° (ENE) 12:31:04 437.445
EO-79 15 Dec 12:30:55 12:33:21 15° 267° (W) 12:35:47 145.935-145.965
VELOX 1 15 Dec 12:32:01 12:36:10 40° 99° (E) 12:40:17 145.980
nSIGHT-1 15 Dec 12:38:03 12:39:41 13° 338° (NNW) 12:41:19 .
ESTCUBE 1 15 Dec 12:39:39 12:43:11 23° 292° (WNW) 12:46:42 437.505/2401.250
AO-7 15 Dec 12:42:05 12:46:25 15° 50° (NE) 12:50:45 .
50 SAT 15 Dec 12:58:08 12:59:00 11° 93° (E) 12:59:53 437.505
AO-91 15 Dec 13:03:12 13:08:11 76° 258° (WSW) 13:12:42 145.960
SPROUT 15 Dec 13:05:38 13:09:39 44° 287° (WNW) 13:13:41 437.525
Gurwin Techsat 1B 15 Dec 13:06:54 13:12:13 82° 76° (ENE) 13:17:33 435.225
UKube-1 15 Dec 13:09:18 13:10:44 11° 92° (E) 13:12:08 .
YUBILEINY 15 Dec 13:10:44 13:18:28 33° 72° (ENE) 13:26:07 435.215
M-CUBED/EXP-1 PRIME 15 Dec 13:21:22 13:22:55 12° 57° (ENE) 13:24:30 437.505
DX 1 15 Dec 13:24:57 13:28:48 30° 97° (E) 13:32:37 434.975-435.025
ITAMSAT 1 15 Dec 13:36:13 13:37:43 11° 60° (ENE) 13:39:13 435.822/435.867
RS-15 15 Dec 13:38:55 13:50:28 50° 109° (ESE) 14:02:01 29.354- 29.394
NO-84 15 Dec 13:56:03 13:59:54 72° 227° (SW) 14:04:00 435.350 FM
Oscar 19 15 Dec 13:58:24 14:02:24 23° 265° (W) 14:06:27 437.125/150
VELOX 1 15 Dec 14:09:25 14:12:15 17° 294° (WNW) 14:15:04 145.980
50 SAT 15 Dec 14:28:17 14:30:59 27° 288° (WNW) 14:33:41 437.505
AO-7 15 Dec 14:29:30 14:37:45 74° 69° (ENE) 14:46:04 .
SO-50 15 Dec 14:31:10 14:35:11 35° 114° (ESE) 14:39:16 436.795
MOZHAYETS 4 15 Dec 14:37:03 14:40:56 26° 96° (E) 14:44:48
UKube-1 15 Dec 14:42:49 14:47:01 53° 286° (WNW) 14:51:11 .
Gurwin Techsat 1B 15 Dec 14:51:48 14:52:44 10° 270° (W) 14:53:39 435.225
M-CUBED/EXP-1 PRIME 15 Dec 14:52:18 14:56:34 72° 253° (WSW) 15:01:08 437.505
DX 1 15 Dec 15:01:31 15:04:46 21° 292° (WNW) 15:08:00 434.975-435.025
BEESAT 15 Dec 15:06:37 15:10:59 35° 98° (E) 15:15:19 436.000
YUBILEINY 15 Dec 15:07:06 15:15:29 51° 271° (W) 15:23:48 435.215
ITAMSAT 1 15 Dec 15:11:11 15:16:24 86° 258° (WSW) 15:21:39 435.822/435.867
ITUPSAT 1 15 Dec 15:35:22 15:40:08 71° 102° (ESE) 15:44:54 437.325
RS-15 15 Dec 15:51:06 16:02:58 51° 310° (NW) 16:14:47 29.354- 29.394
DOVE 4 15 Dec 15:52:25 15:57:26 47° 73° (ENE) 16:02:21 437.250
nSIGHT-1 15 Dec 15:53:39 15:54:38 11° 19° (NNE) 15:55:36 .
CUBESAT XI-V 15 Dec 16:02:39 16:07:15 51° 99° (E) 16:11:48 437.345
SO-50 15 Dec 16:12:05 16:15:42 24° 311° (NW) 16:19:21 436.795
MOZHAYETS 4 15 Dec 16:14:05 16:17:59 28° 290° (WNW) 16:21:53
KKS-1 15 Dec 16:20:28 16:22:22 12° 92° (E) 16:24:14 437.445
XW-2D 15 Dec 16:24:32 16:26:21 13° 67° (ENE) 16:28:10 145.860 - 145.880
AO-7 15 Dec 16:25:09 16:31:08 22° 266° (W) 16:37:10 .
KAITUO 1B 15 Dec 16:31:10 16:31:42 10° 66° (ENE) 16:32:14 145.475/437.950
ISS 15 Dec 16:38:40 16:40:55 17° 25° (NNE) 16:43:09 437.550
XW-2B 15 Dec 16:39:27 16:42:09 19° 69° (ENE) 16:44:53 145.730 - 145.750
BEESAT 15 Dec 16:44:52 16:48:30 22° 293° (WNW) 16:52:07 436.000
CUTE-I 15 Dec 16:45:48 16:50:13 27° 67° (ENE) 16:54:39 437.470
XW-2F 15 Dec 16:50:06 16:53:09 24° 71° (ENE) 16:56:14 145.980 - 146.000
PCSat 15 Dec 16:55:53 16:58:08 13° 103° (ESE) 17:00:23 145.827
STARS 15 Dec 17:00:03 17:02:05 13° 93° (E) 17:04:06 437.465
O/OREOS (USA 219) 15 Dec 17:03:15 17:06:02 16° 57° (ENE) 17:08:48 437.305
XW-2C 15 Dec 17:05:55 17:09:29 41° 74° (ENE) 17:13:05 145.795 - 145.815
ITUPSAT 1 15 Dec 17:15:38 17:17:20 12° 298° (WNW) 17:19:01 437.325
nSIGHT-1 15 Dec 17:28:17 17:31:27 51° 37° (NE) 17:34:34 .
CUBEBUG 2 15 Dec 17:30:39 17:32:05 12° 65° (ENE) 17:33:30 437.445
DOVE 4 15 Dec 17:31:30 17:35:14 19° 267° (W) 17:38:55 437.250
SEEDS 15 Dec 17:39:54 17:42:25 16° 67° (ENE) 17:44:58 437.485
CUBESAT XI-V 15 Dec 17:41:25 17:44:09 15° 295° (WNW) 17:46:52 437.345
LilacSat-2 15 Dec 17:43:40 17:47:23 53° 260° (W) 17:51:10 437.200
HO-68 15 Dec 17:43:59 17:50:49 49° 68° (ENE) 17:57:39 435.675
KKS-1 15 Dec 17:54:53 17:59:11 51° 287° (WNW) 18:03:27 437.445
NUDT-PHONESAT 15 Dec 17:55:37 17:59:15 62° 259° (W) 18:02:57 437.300
XW-2D 15 Dec 17:56:37 18:00:08 37° 262° (W) 18:03:42 145.860 - 145.880
KAITUO 1B 15 Dec 18:01:34 18:05:10 48° 260° (W) 18:08:50 145.475/437.950
CUTE 1.7 + AOD 2 15 Dec 18:03:24 18:07:29 49° 74° (ENE) 18:11:37 437.475
RS-15 15 Dec 18:11:12 18:19:26 20° 341° (NNW) 18:27:33 29.354- 29.394
XW-2B 15 Dec 18:12:59 18:16:08 25° 264° (W) 18:19:19 145.730 - 145.750
XW-2A 15 Dec 18:13:58 18:15:15 12° 68° (ENE) 18:16:31 145.665 - 145.685
ISS 15 Dec 18:14:25 18:17:41 68° 222° (SW) 18:20:56 437.550
AO-73 15 Dec 18:23:42 18:24:48 11° 65° (ENE) 18:25:53 145.935
XW-2F 15 Dec 18:24:25 18:27:11 19° 265° (W) 18:29:58 145.980 - 146.000
CUTE-I 15 Dec 18:25:10 18:30:04 36° 262° (W) 18:34:59 437.470
BEESAT 3 15 Dec 18:25:38 18:26:00 10° 107° (ESE) 18:26:22 437.485
STRAND 1 15 Dec 18:32:02 18:35:14 17° 93° (E) 18:38:24 437.568
STARS 15 Dec 18:34:27 18:38:39 48° 287° (WNW) 18:42:50 437.465
PCSat 15 Dec 18:35:24 18:40:48 75° 298° (WNW) 18:46:15 145.827
O/OREOS (USA 219) 15 Dec 18:41:24 18:45:41 46° 254° (WSW) 18:49:57 437.305
XW-2C 15 Dec 18:42:42 18:43:50 11° 268° (W) 18:44:59 145.795 - 145.815
UWE-3 15 Dec 19:01:03 19:05:11 73° 75° (ENE) 19:09:19 435.000/436.395/437.385
CUBEBUG 2 15 Dec 19:04:07 19:08:14 53° 260° (W) 19:12:19 437.445
nSIGHT-1 15 Dec 19:05:43 19:07:18 13° 232° (SW) 19:08:55 .
SEEDS 15 Dec 19:13:46 19:17:44 40° 262° (W) 19:21:44 437.485
ZACube-1 15 Dec 19:23:14 19:27:19 65° 76° (ENE) 19:31:26 437.345
AAUSAT CUBESAT 2 15 Dec 19:28:31 19:32:39 66° 259° (WSW) 19:36:50 437.432
HO-68 15 Dec 19:32:36 19:38:41 30° 264° (W) 19:44:49 435.675
Oscar 11 15 Dec 19:40:28 19:44:40 58° 75° (ENE) 19:48:57 .
CUTE 1.7 + AOD 2 15 Dec 19:41:52 19:43:34 12° 269° (W) 19:45:17 437.475
XW-2A 15 Dec 19:44:37 19:47:36 31° 263° (W) 19:50:37 145.665 - 145.685
AO-73 15 Dec 19:56:28 20:00:30 55° 260° (W) 20:04:35 145.935
BEESAT 3 15 Dec 19:59:04 20:02:59 58° 302° (WNW) 20:06:56 437.485
FO-29 15 Dec 20:02:25 20:08:44 42° 96° (E) 20:14:19 435.910
STRAND 1 15 Dec 20:09:44 20:14:40 51° 288° (WNW) 20:19:35 437.568
Max Valier Satellite 15 Dec 20:13:59 20:16:03 15° 68° (ENE) 20:18:06 145.860
DELFI C3 15 Dec 20:18:48 20:22:13 27° 71° (ENE) 20:25:38 145.870
PCSat 15 Dec 20:23:10 20:25:08 12° 317° (NW) 20:27:05 145.827
RS-15 15 Dec 20:30:41 20:38:39 19° 18° (NNE) 20:46:22 29.354- 29.394
EO-88 15 Dec 20:38:11 20:40:51 20° 70° (ENE) 20:43:32 145.990 - 145.960
BEESAT 2 15 Dec 20:42:05 20:46:04 76° 302° (WNW) 20:50:08 435.950
UNISAT 6 15 Dec 20:45:09 20:46:53 12° 92° (E) 20:48:36 437.425
FALCONSAT 3 15 Dec 21:05:45 21:08:39 22° 156° (SSE) 21:11:35 435.103
Oscar 11 15 Dec 21:20:25 21:21:09 10° 270° (W) 21:21:53 .
AO-85 15 Dec 21:23:43 21:27:33 67° 117° (ESE) 21:31:34 145.980
Max Valier Satellite 15 Dec 21:46:20 21:49:34 30° 263° (W) 21:52:50 145.860
FO-29 15 Dec 21:47:48 21:53:30 29° 296° (WNW) 21:58:38 435.910
DELFI C3 15 Dec 21:54:03 21:56:55 19° 266° (W) 21:59:48 145.870
ESTCUBE 1 15 Dec 22:00:19 22:03:50 23° 68° (ENE) 22:07:22 437.505/2401.250
EO-88 15 Dec 22:11:29 22:14:20 22° 265° (W) 22:17:13 145.990 - 145.960
TIGRISAT 15 Dec 22:15:50 22:20:09 65° 285° (WNW) 22:24:34 435.000
UNISAT 6 15 Dec 22:19:35 22:23:50 53° 286° (WNW) 22:28:10 437.425
PRISM 15 Dec 22:32:53 22:36:55 55° 101° (E) 22:40:53 437.425
LO-87 15 Dec 22:36:38 22:40:09 79° 77° (ENE) 22:43:42 145.935 - 145.965
RS-15 15 Dec 22:43:38 22:55:03 50° 49° (NE) 23:05:50 29.354- 29.394
FALCONSAT 3 15 Dec 22:43:47 22:47:23 54° 171° (S) 22:51:00 435.103
SO-50 15 Dec 23:04:13 23:07:48 21° 48° (NE) 23:11:24 436.795
POLYITAN 1 15 Dec 23:04:40 23:06:51 14° 93° (E) 23:09:02 437.675
AIST 2D 15 Dec 23:05:33 23:09:00 49° 99° (E) 23:12:25 435.315
AO-85 15 Dec 23:06:55 23:08:27 12° 317° (NW) 23:10:00 145.980
VELOX 1 15 Dec 23:27:12 23:31:00 28° 70° (ENE) 23:34:47 145.980
QB50P2 15 Dec 23:29:11 23:32:55 30° 97° (E) 23:36:39 145.880/145.840
DUCHIFAT 1 15 Dec 23:32:17 23:35:34 22° 95° (E) 23:38:49 145.980
ESTCUBE 1 15 Dec 23:36:28 23:40:26 30° 263° (W) 23:44:27 437.505/2401.250
SPROUT 15 Dec 23:56:06 00:00:20 79° 258° (WSW) 00:04:36 437.525
NANOSAT C BR1 15 Dec 23:58:55 00:03:02 54° 100° (E) 00:07:09 145.865
BUGSAT 1 16 Dec 00:08:35 00:10:01 12° 92° (E) 00:11:26 437.445
PRISM 16 Dec 00:10:30 00:11:39 11° 296° (WNW) 00:12:47 437.425
EO-79 16 Dec 00:15:11 00:19:24 83° 286° (WNW) 00:23:38 145.935-145.965
DX 1 16 Dec 00:18:45 00:22:05 22° 68° (ENE) 00:25:26 434.975-435.025
FALCONSAT 3 16 Dec 00:22:43 00:26:20 61° 186° (S) 00:29:58 435.103
Oscar 19 16 Dec 00:33:02 00:36:04 15° 92° (E) 00:39:06 437.125/150
POLYITAN 1 16 Dec 00:38:47 00:42:48 43° 287° (WNW) 00:46:48 437.675
SO-50 16 Dec 00:43:59 00:48:26 45° 245° (WSW) 00:52:58 436.795
50 SAT 16 Dec 00:51:28 00:54:31 46° 75° (ENE) 00:57:34 437.505
AO-91 16 Dec 00:56:27 00:58:47 17° 95° (E) 01:01:05 145.960
RS-15 16 Dec 00:56:31 01:07:20 47° 252° (WSW) 01:17:39 29.354- 29.394
VELOX 1 16 Dec 01:03:47 01:07:22 24° 264° (W) 01:10:57 145.980
QB50P2 16 Dec 01:05:24 01:08:29 20° 292° (WNW) 01:11:34 145.880/145.840
DUCHIFAT 1 16 Dec 01:07:38 01:11:10 27° 290° (WNW) 01:14:41 145.980
Gurwin Techsat 1B 16 Dec 01:25:26 01:30:22 37° 98° (E) 01:35:15 435.225
UKube-1 16 Dec 01:34:34 01:38:53 85° 254° (WSW) 01:43:14 .
NANOSAT C BR1 16 Dec 01:36:39 01:38:14 12° 295° (WNW) 01:39:50 145.865
MOZHAYETS 4 16 Dec 01:37:23 01:40:41 20° 67° (ENE) 01:44:01
BUGSAT 1 16 Dec 01:41:40 01:45:34 46° 286° (WNW) 01:49:28 437.445
DX 1 16 Dec 01:54:13 01:58:04 30° 263° (W) 02:01:56 434.975-435.025
FALCONSAT 3 16 Dec 02:01:56 02:05:09 28° 200° (SSW) 02:08:20 435.103
YUBILEINY 16 Dec 02:08:55 02:16:54 40° 87° (E) 02:24:54 435.215
Oscar 19 16 Dec 02:10:36 02:15:42 57° 287° (WNW) 02:20:46 437.125/150
BEESAT 16 Dec 02:10:59 02:15:12 33° 70° (ENE) 02:19:26 436.000
AO-91 16 Dec 02:32:43 02:35:13 19° 290° (WNW) 02:37:41 145.960
AO-7 16 Dec 02:34:20 02:41:07 27° 96° (E) 02:47:50 .
ITUPSAT 1 16 Dec 02:39:50 02:44:32 65° 75° (ENE) 02:49:16 437.325
CUBESAT XI-V 16 Dec 03:03:43 03:08:01 39° 72° (ENE) 03:12:23 437.345
Gurwin Techsat 1B 16 Dec 03:05:48 03:10:04 25° 293° (WNW) 03:14:20 435.225
JUGNU 16 Dec 03:06:14 03:07:44 11° 171° (S) 03:09:15 437.505
MOZHAYETS 4 16 Dec 03:13:25 03:17:35 35° 263° (W) 03:21:46
